When you browse on this site, cookies collect data to enhance your experience and personalize the content and advertising you see.
Visit our Privacy Policy to learn more. By continuing to use the site, you agree to this use of cookies and data.
  • Em Portugal
  • Lista de países
  • Para 7 dias
  • Temperatura da água
  • Mapas de satélite
  • Mapa do tempo
  • Widgets de tempo
  • user-avatar
    Iniciar Sessão

    Previsão horária em Mazari Sharif

    Hoje, 22 Julho, Segunda-feira

    Tempo Temperatura Precipitação Vento Pressão Humidade
    00:00 +29°C° 0 mm 4 m/s 652 mmHg 18%
    01:00 +28°C° 0 mm 5 m/s 651 mmHg 20%
    02:00 +28°C° 0 mm 5 m/s 651 mmHg 22%
    03:00 +27°C° 0 mm 5 m/s 651 mmHg 23%
    04:00 +27°C° 0 mm 4 m/s 651 mmHg 25%
    05:00 +28°C° 0 mm 4 m/s 652 mmHg 24%
    06:00 +29°C° 0 mm 5 m/s 653 mmHg 23%
    07:00 +32°C° 0 mm 5 m/s 654 mmHg 22%
    08:00 +33°C° 0 mm 5 m/s 654 mmHg 20%
    09:00 +35°C° 0 mm 5 m/s 654 mmHg 18%
    10:00 +36°C° 0 mm 5 m/s 654 mmHg 16%
    11:00 +38°C° 0 mm 6 m/s 654 mmHg 15%
    12:00 +39°C° 0 mm 6 m/s 654 mmHg 14%
    13:00 +40°C° 0 mm 7 m/s 654 mmHg 13%
    14:00 +40°C° 0 mm 7 m/s 653 mmHg 13%
    15:00 +40°C° 0 mm 6 m/s 653 mmHg 12%
    16:00 +40°C° 0 mm 6 m/s 653 mmHg 11%
    17:00 +37°C° 0 mm 5 m/s 652 mmHg 12%
    18:00 +35°C° 0 mm 4 m/s 652 mmHg 14%
    19:00 +31°C° 0 mm 3 m/s 652 mmHg 15%
    20:00 +30°C° 0 mm 3 m/s 651 mmHg 17%
    21:00 +29°C° 0 mm 3 m/s 651 mmHg 18%
    22:00 +28°C° 0 mm 2 m/s 651 mmHg 20%
    23:00 +28°C° 0 mm 2 m/s 651 mmHg 21%

    Amanhã, 23 Julho, Terça-feira

    Tempo Temperatura Precipitação Vento Pressão Humidade
    00:00 +27°C° 0 mm 2 m/s 650 mmHg 21%
    01:00 +26°C° 0 mm 2 m/s 650 mmHg 22%
    02:00 +26°C° 0 mm 2 m/s 650 mmHg 23%
    03:00 +25°C° 0 mm 2 m/s 650 mmHg 24%
    04:00 +25°C° 0 mm 2 m/s 650 mmHg 26%
    05:00 +27°C° 0 mm 2 m/s 651 mmHg 23%
    06:00 +29°C° 0 mm 2 m/s 652 mmHg 20%
    07:00 +31°C° 0 mm 2 m/s 653 mmHg 17%
    08:00 +34°C° 0 mm 2 m/s 653 mmHg 16%
    09:00 +35°C° 0 mm 2 m/s 653 mmHg 14%
    10:00 +36°C° 0 mm 3 m/s 653 mmHg 13%
    11:00 +37°C° 0 mm 4 m/s 653 mmHg 12%
    12:00 +38°C° 0 mm 4 m/s 653 mmHg 11%
    13:00 +39°C° 0 mm 5 m/s 653 mmHg 10%
    14:00 +39°C° 0 mm 5 m/s 653 mmHg 10%
    15:00 +39°C° 0 mm 5 m/s 652 mmHg 10%
    16:00 +38°C° 0 mm 4 m/s 652 mmHg 10%
    17:00 +35°C° 0 mm 3 m/s 652 mmHg 12%
    18:00 +32°C° 0 mm 2 m/s 651 mmHg 14%
    19:00 +29°C° 0 mm 1 m/s 650 mmHg 16%
    20:00 +28°C° 0 mm 1 m/s 650 mmHg 16%
    21:00 +28°C° 0 mm 1 m/s 650 mmHg 17%
    22:00 +27°C° 0 mm 1 m/s 650 mmHg 17%
    23:00 +26°C° 0 mm 1 m/s 650 mmHg 18%

    Depois de amanhã, 24 Julho, Quarta-feira

    Tempo Temperatura Precipitação Vento Pressão Humidade
    00:00 +26°C° 0 mm 1 m/s 649 mmHg 19%
    01:00 +25°C° 0 mm 1 m/s 649 mmHg 19%
    02:00 +25°C° 0 mm 1 m/s 649 mmHg 20%
    03:00 +24°C° 0 mm 1 m/s 649 mmHg 20%
    04:00 +24°C° 0 mm 1 m/s 649 mmHg 20%
    05:00 +27°C° 0 mm 1 m/s 650 mmHg 17%
    06:00 +30°C° 0 mm 1 m/s 651 mmHg 15%
    07:00 +33°C° 0 mm 1 m/s 652 mmHg 12%
    08:00 +34°C° 0 mm 1 m/s 652 mmHg 11%
    09:00 +36°C° 0 mm 2 m/s 652 mmHg 10%
    10:00 +38°C° 0 mm 2 m/s 652 mmHg 9%
    11:00 +39°C° 0 mm 3 m/s 652 mmHg 9%
    12:00 +39°C° 0 mm 3 m/s 652 mmHg 8%
    13:00 +41°C° 0 mm 4 m/s 652 mmHg 8%
    14:00 +41°C° 0 mm 4 m/s 651 mmHg 8%
    15:00 +41°C° 0 mm 4 m/s 651 mmHg 7%
    16:00 +41°C° 0 mm 4 m/s 651 mmHg 7%
    17:00 +37°C° 0 mm 3 m/s 650 mmHg 10%
    18:00 +34°C° 0 mm 2 m/s 649 mmHg 12%
    19:00 +30°C° 0 mm 1 m/s 649 mmHg 14%
    20:00 +29°C° 0 mm 1 m/s 649 mmHg 14%
    21:00 +29°C° 0 mm 1 m/s 649 mmHg 14%
    22:00 +29°C° 0 mm 2 m/s 649 mmHg 14%
    23:00 +28°C° 0 mm 2 m/s 648 mmHg 15%

    25 Julho, Quinta-feira

    Tempo Temperatura Precipitação Vento Pressão Humidade
    00:00 +28°C° 0 mm 2 m/s 648 mmHg 15%
    01:00 +27°C° 0 mm 2 m/s 648 mmHg 16%
    02:00 +26°C° 0 mm 2 m/s 648 mmHg 17%
    03:00 +26°C° 0 mm 2 m/s 648 mmHg 18%
    04:00 +25°C° 0 mm 2 m/s 648 mmHg 19%
    05:00 +27°C° 0 mm 2 m/s 649 mmHg 17%
    06:00 +30°C° 0 mm 2 m/s 650 mmHg 16%
    07:00 +32°C° 0 mm 2 m/s 651 mmHg 14%
    08:00 +34°C° 0 mm 2 m/s 651 mmHg 13%
    09:00 +36°C° 0 mm 3 m/s 651 mmHg 12%
    10:00 +38°C° 0 mm 4 m/s 652 mmHg 11%
    11:00 +38°C° 0 mm 4 m/s 651 mmHg 11%
    12:00 +40°C° 0 mm 5 m/s 651 mmHg 10%
    13:00 +41°C° 0 mm 5 m/s 651 mmHg 9%
    14:00 +41°C° 0 mm 5 m/s 651 mmHg 9%
    15:00 +41°C° 0 mm 5 m/s 650 mmHg 9%
    16:00 +41°C° 0 mm 5 m/s 650 mmHg 8%
    17:00 +39°C° 0 mm 5 m/s 650 mmHg 10%
    18:00 +36°C° 0 mm 4 m/s 649 mmHg 11%
    19:00 +34°C° 0 mm 4 m/s 649 mmHg 13%
    20:00 +32°C° 0 mm 4 m/s 649 mmHg 15%
    21:00 +30°C° 0 mm 5 m/s 648 mmHg 17%
    22:00 +29°C° 0 mm 5 m/s 648 mmHg 19%
    23:00 +28°C° 0 mm 5 m/s 648 mmHg 19%

    26 Julho, Sexta-feira

    Tempo Temperatura Precipitação Vento Pressão Humidade
    00:00 +27°C° 0 mm 5 m/s 648 mmHg 19%
    01:00 +26°C° 0 mm 5 m/s 647 mmHg 19%
    02:00 +26°C° 0 mm 4 m/s 647 mmHg 19%
    03:00 +26°C° 0 mm 4 m/s 647 mmHg 19%
    04:00 +26°C° 0 mm 4 m/s 647 mmHg 19%
    05:00 +27°C° 0 mm 4 m/s 648 mmHg 17%
    06:00 +29°C° 0 mm 4 m/s 649 mmHg 15%
    07:00 +30°C° 0 mm 3 m/s 650 mmHg 14%
    08:00 +33°C° 0 mm 4 m/s 650 mmHg 13%
    09:00 +34°C° 0 mm 4 m/s 650 mmHg 11%
    10:00 +36°C° 0 mm 5 m/s 651 mmHg 10%
    11:00 +37°C° 0 mm 5 m/s 651 mmHg 10%
    12:00 +39°C° 0 mm 6 m/s 650 mmHg 9%
    13:00 +39°C° 0 mm 6 m/s 650 mmHg 9%
    14:00 +40°C° 0 mm 6 m/s 650 mmHg 9%
    15:00 +40°C° 0 mm 5 m/s 650 mmHg 9%
    16:00 +40°C° 0 mm 5 m/s 650 mmHg 8%
    17:00 +36°C° 0 mm 4 m/s 649 mmHg 11%
    18:00 +34°C° 0 mm 3 m/s 649 mmHg 13%
    19:00 +30°C° 0 mm 2 m/s 648 mmHg 15%
    20:00 +29°C° 0 mm 3 m/s 648 mmHg 15%
    21:00 +29°C° 0 mm 4 m/s 648 mmHg 15%
    22:00 +28°C° 0 mm 4 m/s 649 mmHg 15%
    23:00 +28°C° 0 mm 5 m/s 649 mmHg 16%

    27 Julho, Sábado

    Tempo Temperatura Precipitação Vento Pressão Humidade
    00:00 +27°C° 0 mm 5 m/s 649 mmHg 16%
    01:00 +27°C° 0 mm 5 m/s 648 mmHg 17%
    02:00 +26°C° 0 mm 5 m/s 649 mmHg 18%
    03:00 +26°C° 0 mm 5 m/s 649 mmHg 18%
    04:00 +25°C° 0 mm 5 m/s 649 mmHg 19%
    05:00 +27°C° 0 mm 4 m/s 649 mmHg 17%
    06:00 +29°C° 0 mm 4 m/s 650 mmHg 16%
    07:00 +32°C° 0 mm 4 m/s 651 mmHg 14%
    08:00 +34°C° 0 mm 5 m/s 651 mmHg 13%
    09:00 +35°C° 0 mm 5 m/s 651 mmHg 12%
    10:00 +36°C° 0 mm 6 m/s 652 mmHg 11%
    11:00 +38°C° 0 mm 6 m/s 652 mmHg 10%
    12:00 +39°C° 0 mm 5 m/s 652 mmHg 9%
    13:00 +40°C° 0 mm 5 m/s 651 mmHg 9%
    14:00 +40°C° 0 mm 5 m/s 651 mmHg 8%
    15:00 +40°C° 0 mm 5 m/s 651 mmHg 8%
    16:00 +40°C° 0 mm 5 m/s 651 mmHg 7%
    17:00 +36°C° 0 mm 4 m/s 650 mmHg 9%
    18:00 +33°C° 0 mm 3 m/s 650 mmHg 11%
    19:00 +29°C° 0 mm 2 m/s 649 mmHg 12%
    20:00 +29°C° 0 mm 2 m/s 649 mmHg 14%
    21:00 +28°C° 0 mm 2 m/s 649 mmHg 15%
    22:00 +28°C° 0 mm 2 m/s 649 mmHg 17%
    23:00 +27°C° 0 mm 2 m/s 649 mmHg 17%
    Mostrar mais